When you browse on this site, cookies collect data to enhance your experience and personalize the content and advertising you see.
Visit our Privacy Policy to learn more. By continuing to use the site, you agree to this use of cookies and data.
  • In Hungary
  • List of Countries
  • For 7 days
  • Water Temperature
  • Weather Map
  • News
  • Weather Widgets
  • user-avatar
    Login

    Hourly Weather Atymya

    Today, 29 January, Wednesday

    Time Temperature Precipitation Wind Pressure Humidity
    00:00 -28°C° 0 mm 2 mps 755 mmHg 88%
    01:00 -28°C° 0 mm 2 mps 755 mmHg 86%
    02:00 -28°C° 0 mm 2 mps 756 mmHg 86%
    03:00 -28°C° 0 mm 2 mps 756 mmHg 87%
    04:00 -27°C° 0 mm 1 mps 756 mmHg 84%
    05:00 -25°C° 0 mm 1 mps 757 mmHg 85%
    06:00 -25°C° 0 mm 1 mps 757 mmHg 86%
    07:00 -25°C° 0 mm 1 mps 757 mmHg 87%
    08:00 -24°C° 0 mm 1 mps 757 mmHg 88%
    09:00 -23°C° 0 mm 1 mps 758 mmHg 89%
    10:00 -25°C° 0 mm 2 mps 758 mmHg 91%
    11:00 -21°C° 0 mm 1 mps 758 mmHg 90%
    12:00 -19°C° 0 mm 1 mps 758 mmHg 90%
    13:00 -18°C° 0 mm 1 mps 758 mmHg 90%
    14:00 -19°C° 0 mm 1 mps 759 mmHg 91%
    15:00 -20°C° 0 mm 1 mps 759 mmHg 93%
    16:00 -21°C° 0 mm 1 mps 760 mmHg 95%
    17:00 -22°C° 0 mm 1 mps 760 mmHg 95%
    18:00 -22°C° 0 mm 1 mps 760 mmHg 95%
    19:00 -23°C° 0 mm 0 mps 760 mmHg 94%
    20:00 -23°C° 0 mm 0 mps 760 mmHg 94%
    21:00 -24°C° 0 mm 1 mps 760 mmHg 94%
    22:00 -24°C° 0 mm 1 mps 760 mmHg 95%
    23:00 -24°C° 0 mm 1 mps 760 mmHg 95%

    Tomorrow, 30 January, Thursday

    Time Temperature Precipitation Wind Pressure Humidity
    00:00 -24°C° 0 mm 1 mps 761 mmHg 95%
    01:00 -24°C° 0 mm 1 mps 761 mmHg 95%
    02:00 -24°C° 0 mm 1 mps 761 mmHg 94%
    03:00 -24°C° 0 mm 1 mps 761 mmHg 94%
    04:00 -25°C° 0 mm 1 mps 761 mmHg 93%
    05:00 -25°C° 0 mm 1 mps 761 mmHg 93%
    06:00 -28°C° 0 mm 2 mps 761 mmHg 93%
    07:00 -28°C° 0 mm 2 mps 761 mmHg 93%
    08:00 -27°C° 0 mm 2 mps 761 mmHg 92%
    09:00 -26°C° 0 mm 2 mps 761 mmHg 92%
    10:00 -25°C° 0 mm 2 mps 761 mmHg 92%
    11:00 -24°C° 0 mm 2 mps 761 mmHg 93%
    12:00 -24°C° 0 mm 2 mps 761 mmHg 93%
    13:00 -24°C° 0 mm 3 mps 760 mmHg 93%
    14:00 -24°C° 0.2 mm 3 mps 760 mmHg 95%
    15:00 -24°C° 0.2 mm 3 mps 760 mmHg 96%
    16:00 -24°C° 0.2 mm 3 mps 760 mmHg 97%
    17:00 -24°C° 0.3 mm 3 mps 760 mmHg 97%
    18:00 -23°C° 0.3 mm 2 mps 759 mmHg 97%
    19:00 -23°C° 0.3 mm 2 mps 759 mmHg 97%
    20:00 -23°C° 0.2 mm 2 mps 759 mmHg 97%
    21:00 -23°C° 0.2 mm 2 mps 759 mmHg 97%
    22:00 -23°C° 0.2 mm 2 mps 759 mmHg 97%
    23:00 -23°C° 0.1 mm 2 mps 759 mmHg 98%

    Day after tomorrow, 31 January, Friday

    Time Temperature Precipitation Wind Pressure Humidity
    00:00 -23°C° 0.1 mm 2 mps 759 mmHg 98%
    01:00 -21°C° 0.1 mm 1 mps 759 mmHg 98%
    02:00 -21°C° 0 mm 1 mps 759 mmHg 98%
    03:00 -21°C° 0 mm 1 mps 759 mmHg 98%
    04:00 -21°C° 0 mm 1 mps 759 mmHg 98%
    05:00 -21°C° 0 mm 1 mps 759 mmHg 98%
    06:00 -21°C° 0 mm 1 mps 759 mmHg 98%
    07:00 -21°C° 0 mm 1 mps 759 mmHg 98%
    08:00 -21°C° 0 mm 1 mps 759 mmHg 97%
    09:00 -24°C° 0 mm 2 mps 759 mmHg 97%
    10:00 -23°C° 0 mm 2 mps 759 mmHg 96%
    11:00 -23°C° 0.1 mm 2 mps 759 mmHg 96%
    12:00 -21°C° 0.1 mm 2 mps 759 mmHg 95%
    13:00 -21°C° 0.1 mm 2 mps 759 mmHg 95%
    14:00 -21°C° 0.2 mm 2 mps 759 mmHg 96%
    15:00 -21°C° 0.2 mm 2 mps 759 mmHg 96%
    16:00 -21°C° 0.2 mm 2 mps 759 mmHg 97%
    17:00 -21°C° 0.3 mm 2 mps 758 mmHg 97%
    18:00 -21°C° 0.3 mm 2 mps 758 mmHg 97%
    19:00 -21°C° 0.3 mm 2 mps 758 mmHg 97%
    20:00 -21°C° 0.3 mm 2 mps 758 mmHg 97%
    21:00 -21°C° 0.3 mm 2 mps 757 mmHg 97%
    22:00 -21°C° 0.3 mm 2 mps 757 mmHg 97%
    23:00 -21°C° 0.4 mm 2 mps 757 mmHg 97%

    1 February, Saturday

    Time Temperature Precipitation Wind Pressure Humidity
    00:00 -23°C° 0.4 mm 3 mps 756 mmHg 97%
    01:00 -22°C° 0.4 mm 3 mps 756 mmHg 97%
    02:00 -22°C° 0.4 mm 3 mps 756 mmHg 96%
    03:00 -22°C° 0.4 mm 3 mps 755 mmHg 96%
    04:00 -20°C° 0.4 mm 2 mps 755 mmHg 96%
    05:00 -19°C° 0.3 mm 2 mps 755 mmHg 96%
    06:00 -19°C° 0.3 mm 2 mps 754 mmHg 96%
    07:00 -19°C° 0.3 mm 2 mps 753 mmHg 96%
    08:00 -18°C° 0.3 mm 2 mps 753 mmHg 95%
    09:00 -18°C° 0.3 mm 2 mps 753 mmHg 95%
    10:00 -18°C° 0.3 mm 2 mps 752 mmHg 95%
    11:00 -17°C° 0.1 mm 2 mps 752 mmHg 94%
    12:00 -17°C° 0.1 mm 2 mps 752 mmHg 94%
    13:00 -16°C° 0.1 mm 2 mps 751 mmHg 94%
    14:00 -16°C° 0.1 mm 2 mps 751 mmHg 94%
    15:00 -16°C° 0.1 mm 2 mps 751 mmHg 95%
    16:00 -14°C° 0.1 mm 1 mps 751 mmHg 96%
    17:00 -15°C° 0.2 mm 1 mps 750 mmHg 96%
    18:00 -15°C° 0.2 mm 1 mps 750 mmHg 96%
    19:00 -16°C° 0.2 mm 1 mps 750 mmHg 97%
    20:00 -16°C° 0 mm 1 mps 750 mmHg 97%
    21:00 -17°C° 0 mm 1 mps 750 mmHg 97%
    22:00 -18°C° 0 mm 1 mps 750 mmHg 97%
    23:00 -19°C° 0 mm 1 mps 750 mmHg 98%

    2 February, Sunday

    Time Temperature Precipitation Wind Pressure Humidity
    00:00 -20°C° 0 mm 1 mps 750 mmHg 98%
    01:00 -21°C° 0 mm 1 mps 749 mmHg 99%
    02:00 -21°C° 0 mm 1 mps 749 mmHg 99%
    03:00 -22°C° 0 mm 1 mps 749 mmHg 99%
    04:00 -23°C° 0 mm 1 mps 749 mmHg 99%
    05:00 -23°C° 0 mm 1 mps 749 mmHg 99%
    06:00 -23°C° 0 mm 1 mps 749 mmHg 99%
    07:00 -24°C° 0 mm 1 mps 749 mmHg 99%
    08:00 -23°C° 0 mm 1 mps 749 mmHg 99%
    09:00 -23°C° 0 mm 1 mps 749 mmHg 98%
    10:00 -22°C° 0 mm 0 mps 749 mmHg 98%
    11:00 -21°C° 0 mm 0 mps 749 mmHg 96%
    12:00 -19°C° 0 mm 0 mps 749 mmHg 95%
    13:00 -18°C° 0 mm 0 mps 749 mmHg 93%
    14:00 -19°C° 0 mm 0 mps 748 mmHg 95%
    15:00 -20°C° 0 mm 0 mps 748 mmHg 96%
    16:00 -21°C° 0 mm 0 mps 748 mmHg 98%
    17:00 -21°C° 0 mm 1 mps 748 mmHg 98%
    18:00 -22°C° 0 mm 1 mps 748 mmHg 98%
    19:00 -22°C° 0 mm 1 mps 748 mmHg 98%
    20:00 -22°C° 0 mm 1 mps 747 mmHg 98%
    21:00 -22°C° 0 mm 1 mps 747 mmHg 99%
    22:00 -22°C° 0 mm 1 mps 747 mmHg 99%
    23:00 -21°C° 0 mm 1 mps 746 mmHg 99%

    3 February, Monday

    Time Temperature Precipitation Wind Pressure Humidity
    00:00 -24°C° 0 mm 2 mps 746 mmHg 99%
    01:00 -24°C° 0 mm 2 mps 746 mmHg 99%
    02:00 -23°C° 0 mm 2 mps 745 mmHg 99%
    03:00 -23°C° 0 mm 2 mps 745 mmHg 99%
    04:00 -21°C° 0 mm 2 mps 744 mmHg 99%
    05:00 -21°C° 0 mm 2 mps 744 mmHg 99%
    06:00 -20°C° 0 mm 2 mps 743 mmHg 99%
    07:00 -20°C° 0 mm 2 mps 743 mmHg 99%
    08:00 -19°C° 0 mm 3 mps 742 mmHg 97%
    09:00 -18°C° 0 mm 3 mps 742 mmHg 96%
    10:00 -16°C° 0 mm 3 mps 741 mmHg 94%
    11:00 -16°C° 0 mm 4 mps 741 mmHg 94%
    12:00 -14°C° 0 mm 4 mps 740 mmHg 93%
    13:00 -12°C° 0 mm 4 mps 740 mmHg 93%
    14:00 -12°C° 0 mm 4 mps 739 mmHg 92%
    15:00 -11°C° 0 mm 4 mps 739 mmHg 92%
    16:00 -11°C° 0 mm 4 mps 738 mmHg 92%
    17:00 -11°C° 0 mm 4 mps 738 mmHg 92%
    18:00 -11°C° 0 mm 5 mps 738 mmHg 92%
    19:00 -11°C° 0 mm 5 mps 737 mmHg 92%
    20:00 -10°C° 0.3 mm 5 mps 737 mmHg 93%
    21:00 -10°C° 0.3 mm 5 mps 736 mmHg 93%
    22:00 -8°C° 0.3 mm 5 mps 736 mmHg 94%
    23:00 -8°C° 0.2 mm 5 mps 735 mmHg 94%
    Show more